Location: ????? ????
(37.9717°N, 23.4051°E)
Time: 20:04:17
(UTC+00:00)

NOSS 3-1 (A) - Pass Details

Date: 18 April 2024
Orbit: 660 x 1550 km, 63.4° (Epoch: 15 May)

Event Time Altitude Azimuth Distance (km) Brightness Sun altitude
Rises 17:53:36 0° 207° (SSW) 2,988 6.1 -9.8°
Reaches altitude 10° 17:55:47 10° 206° (SSW) 2,109 5.3 -10.2°
Maximum altitude 18:00:28 77° 121° (ESE) 755 2.8 -11.1°
Drops below altitude 10° 18:05:58 10° 35° (NE) 2,451 5.5 -12.0°
Sets 18:08:40 0° 35° (NE) 3,517 6.3 -12.5°
